Le nostre stazioni meteo in Italia

Pubblicità
Il mio iltempo24.it
Cagliari/Elmas, Italia (16560): Temperatura & dewpoint: 12.03.2019 20:00:00 - 18.03.2019 20:00:00 (CET)Cagliari/Elmas, Italia (16560): velocità del vento: 12.03.2019 20:00:00 - 18.03.2019 20:00:00 (CET)Cagliari/Elmas, Italia (16560): direzione del vento: 12.03.2019 20:00:00 - 18.03.2019 20:00:00 (CET)Cagliari/Elmas, Italia (16560): reduced air pressure: 12.03.2019 20:00:00 - 18.03.2019 20:00:00 (CET)Cagliari/Elmas, Italia (16560): visibility: 12.03.2019 20:00:00 - 18.03.2019 20:00:00 (CET)Cagliari/Elmas, Italia (16560): precipitazioni: 12.03.2019 20:00:00 - 18.03.2019 20:00:00 (CET)
Data & Tempo tt [°C] td [°C] ff [km/h] ff [kn] dd ppp [hPa] vv [km] rr [mm]
18.03.2019 20:00:00 - - - - - - - -
18.03.2019 19:00:00 11,2 3,8 29 16 NNO 1018,2 10 -
18.03.2019 18:00:00 13,0 3,0 31 17 NNO - 10 -
18.03.2019 17:00:00 14,0 4,0 39 21 NNO - 10 -
18.03.2019 16:00:00 14,9 4,3 39 21 NNO 1016,4 10 0,0
18.03.2019 15:00:00 16,0 4,0 41 22 NNO - 10 -
18.03.2019 14:00:00 17,0 5,0 39 21 NNO - 10 -
18.03.2019 13:00:00 17,5 3,3 37 20 NNO 1016,9 10 -
18.03.2019 12:00:00 17,0 2,0 35 19 NNO - 10 -
18.03.2019 11:00:00 16,0 4,0 31 17 NNO - 10 -
18.03.2019 10:00:00 14,8 5,4 37 20 NNO 1016,6 10 0,0
18.03.2019 09:00:00 13,0 8,0 37 20 NNO - 10 -
18.03.2019 08:00:00 11,0 10,0 24 13 NNO - 10 -
18.03.2019 07:00:00 10,0 9,0 24 13 NNO 1014,4 9 -
18.03.2019 06:00:00 9,0 8,0 15 8 NO - 10 -
18.03.2019 05:00:00 9,0 9,0 15 8 NNO - 3,0 -
18.03.2019 04:00:00 9,8 9,6 15 8 NNO 1014,0 0,3 0,0
18.03.2019 03:00:00 9,0 9,0 13 7 NNO - 0,2 -
18.03.2019 02:00:00 9,0 8,0 4 2 - - 10 -
18.03.2019 01:00:00 9,0 8,1 4 2 - 1014,2 10 -
18.03.2019 00:00:00 12,0 11,0 9 5 E - 10 -
17.03.2019 23:00:00 10,0 9,0 9 5 E - 9 -
17.03.2019 22:00:00 11,1 9,8 9 5 ESE 1015,0 10 0,0
17.03.2019 21:00:00 13,0 12,0 8 4 SSE - 10 -
17.03.2019 20:00:00 13,0 11,0 5 3 SSE - 10 -
17.03.2019 19:00:00 13,0 11,0 8 4 S 1014,6 10 -
17.03.2019 18:00:00 15,0 11,0 15 8 SE - 10 -
17.03.2019 17:00:00 15,0 11,0 18 10 SE - 10 -
17.03.2019 16:00:00 15,5 10,8 21 11 SE 1015,7 10 0,0
17.03.2019 15:00:00 16,0 10,0 21 11 SE - 10 -
17.03.2019 14:00:00 16,0 10,0 18 10 SE - 10 -
17.03.2019 13:00:00 15,9 9,9 18 10 SE 1017,8 10 -
17.03.2019 12:00:00 16,0 10,0 18 10 SE - 10 -
17.03.2019 11:00:00 15,0 9,0 5 3 S - 10 -
17.03.2019 10:00:00 14,0 9,1 4 2 - 1019,0 10 0,0
17.03.2019 09:00:00 9,0 7,0 5 3 NO - 10 -
17.03.2019 08:00:00 6,0 5,0 5 3 NNO - 10 -
17.03.2019 07:00:00 4,0 3,2 9 5 NNO 1018,8 10 -
17.03.2019 06:00:00 5,0 4,0 8 4 NNO - 10 -
17.03.2019 05:00:00 5,0 4,0 9 5 NNO - 10 -
17.03.2019 04:00:00 6,3 5,5 9 5 ONO 1018,6 10 0,0
17.03.2019 03:00:00 8,0 7,0 11 6 NO - 10 -
17.03.2019 02:00:00 8,0 7,0 11 6 NNO - 10 -
17.03.2019 01:00:00 8,5 7,2 15 8 NNO 1020,2 10 -
17.03.2019 00:00:00 10,0 8,0 11 6 NO - 10 -
16.03.2019 23:00:00 10,0 8,0 9 5 NNO - 10 -
16.03.2019 22:00:00 11,0 8,6 13 7 NO 1020,8 10 0,0
16.03.2019 21:00:00 12,0 8,0 21 11 NO - 10 -
16.03.2019 20:00:00 13,0 7,0 18 10 N - 10 -
16.03.2019 19:00:00 14,3 6,2 24 13 N 1020,2 10 -
16.03.2019 18:00:00 16,0 5,0 24 13 N - 10 -
16.03.2019 17:00:00 18,0 5,0 35 19 N - 10 -
16.03.2019 16:00:00 19,0 5,1 35 19 NNO 1019,6 10 0,0
16.03.2019 15:00:00 20,0 6,0 37 20 NNO - 10 -
16.03.2019 14:00:00 20,0 8,0 34 18 NNO - 10 -
16.03.2019 13:00:00 19,3 7,8 37 20 NNO 1020,6 10 -
16.03.2019 12:00:00 19,0 8,0 39 21 N - 10 -
16.03.2019 11:00:00 18,0 9,0 37 20 NNO - 10 -
16.03.2019 10:00:00 16,6 9,6 34 18 NNO 1021,2 10 0,0
16.03.2019 09:00:00 15,0 10,0 28 15 N - 10 -
16.03.2019 08:00:00 13,0 9,0 31 17 NNO - 10 -
16.03.2019 07:00:00 13,5 9,4 28 15 NNO 1020,7 10 -
16.03.2019 06:00:00 13,0 10,0 26 14 NNO - 10 -
16.03.2019 05:00:00 12,0 10,0 21 11 NO - 10 -
16.03.2019 04:00:00 12,4 9,7 24 13 NO 1020,2 10 0,0
16.03.2019 03:00:00 12,0 10,0 24 13 NO - 10 -
16.03.2019 02:00:00 - - - - - - - -
16.03.2019 01:00:00 12,7 9,7 28 15 NNO 1021,3 10 -
16.03.2019 00:00:00 13,0 10,0 28 15 NNO - 10 -
15.03.2019 23:00:00 13,0 9,0 21 11 NO - 10 -
15.03.2019 22:00:00 13,8 9,2 26 14 NO 1021,3 10 0,0
15.03.2019 21:00:00 14,0 9,0 29 16 NO - 10 -
15.03.2019 20:00:00 14,0 9,0 37 20 NNO - 10 -
15.03.2019 19:00:00 14,7 8,3 29 16 NO 1019,7 10 -
15.03.2019 18:00:00 16,0 9,0 31 17 NO - 10 -
15.03.2019 17:00:00 16,0 9,0 42 23 NO - 10 -
15.03.2019 16:00:00 16,3 8,5 41 22 NO 1018,4 10 0,0
15.03.2019 15:00:00 18,0 9,0 39 21 NO - 10 -
15.03.2019 14:00:00 17,0 8,0 39 21 NO - 10 -
15.03.2019 13:00:00 16,9 8,3 39 21 NNO 1019,4 - -
15.03.2019 12:00:00 17,0 8,0 46 25 NO - 10 -
15.03.2019 11:00:00 16,0 8,0 39 21 NO - 10 -
15.03.2019 10:00:00 15,1 7,7 35 19 NO 1019,4 10 0,0
15.03.2019 09:00:00 15,0 8,0 35 19 NO - 10 -
15.03.2019 08:00:00 14,0 8,0 44 24 NO - 10 -
15.03.2019 07:00:00 13,2 8,1 37 20 NO 1017,6 10 -
15.03.2019 06:00:00 13,0 8,0 26 14 NO - 10 -
15.03.2019 05:00:00 13,0 7,0 37 20 NO - 10 -
15.03.2019 04:00:00 13,6 7,1 48 26 NO 1016,9 10 0,0
15.03.2019 03:00:00 14,0 6,0 44 24 NO - 10 -
15.03.2019 02:00:00 14,0 6,0 39 21 NO - 10 -
15.03.2019 01:00:00 13,9 5,6 35 19 NO 1019,3 10 -
15.03.2019 00:00:00 14,0 6,0 41 22 NO - 10 -
14.03.2019 23:00:00 14,0 5,0 44 24 NO - 10 -
14.03.2019 22:00:00 13,6 5,0 35 19 NO 1020,1 10 0,0
14.03.2019 21:00:00 13,0 4,0 39 21 NO - 10 -
14.03.2019 20:00:00 13,0 5,0 42 23 NO - 10 -
14.03.2019 19:00:00 12,6 4,9 39 21 NO 1019,3 10 -
14.03.2019 18:00:00 13,0 4,0 37 20 NO - 10 -
14.03.2019 17:00:00 14,0 5,0 37 20 NO - 10 -
14.03.2019 16:00:00 13,9 5,2 37 20 NO 1020,1 10 0,0
14.03.2019 15:00:00 - - - - - - - -
14.03.2019 14:00:00 - - - - - - - -
14.03.2019 13:00:00 - - - - - - - -
14.03.2019 12:00:00 14,0 6,0 39 21 NO - 10 -
14.03.2019 11:00:00 13,0 6,0 37 20 NO - 10 -
14.03.2019 10:00:00 10,1 7,4 34 18 NNO 1021,7 9 0,0
14.03.2019 09:00:00 11,0 6,0 24 13 NNO - 10 -
14.03.2019 08:00:00 10,0 6,0 21 11 NO - 10 -
14.03.2019 07:00:00 8,9 5,9 21 11 NNO 1019,9 10 -
14.03.2019 06:00:00 10,0 6,0 28 15 NO - 10 -
14.03.2019 05:00:00 11,0 5,0 34 18 NO - 10 -
14.03.2019 04:00:00 11,5 4,7 31 17 NO 1018,6 10 0,0
14.03.2019 03:00:00 12,0 4,0 37 20 NO - 10 -
14.03.2019 02:00:00 12,0 5,0 35 19 NO - 10 -
14.03.2019 01:00:00 10,9 6,5 28 15 NO 1018,9 10 -
14.03.2019 00:00:00 10,0 5,0 18 10 NO - 10 -
13.03.2019 23:00:00 10,0 6,0 15 8 ONO - 10 -
13.03.2019 22:00:00 11,0 6,0 28 15 NO 1018,3 10 0,0
13.03.2019 21:00:00 12,0 5,0 22 12 ONO - 10 -
13.03.2019 20:00:00 11,0 6,0 18 10 NO - 10 -
13.03.2019 19:00:00 10,3 6,1 18 10 NO 1017,9 10 -
13.03.2019 18:00:00 11,0 9,0 29 16 NNO - 10 -
13.03.2019 17:00:00 14,0 8,0 31 17 NNO - 10 -
13.03.2019 16:00:00 16,8 6,8 15 8 O 1016,2 10 0,0
13.03.2019 15:00:00 18,0 6,0 16 9 O - 10 -
13.03.2019 14:00:00 16,0 9,0 9 5 - - 10 -
13.03.2019 13:00:00 16,0 7,9 11 6 SSO 1018,8 10 -
13.03.2019 12:00:00 16,0 8,0 15 8 N - 10 -
13.03.2019 11:00:00 15,0 7,0 11 6 NNO - 10 -
13.03.2019 10:00:00 13,1 7,9 11 6 ONO 1020,7 10 0,0
13.03.2019 09:00:00 10,0 6,0 5 3 NNO - 10 -
13.03.2019 08:00:00 6,0 4,0 8 4 NNO - 10 -
13.03.2019 07:00:00 5,2 3,8 11 6 NO 1020,9 10 -
13.03.2019 06:00:00 6,0 4,0 9 5 NO - 10 -
13.03.2019 05:00:00 5,0 3,0 9 5 NNO - 10 -
13.03.2019 04:00:00 6,2 3,3 11 6 NO 1022,2 10 0,0
13.03.2019 03:00:00 6,0 3,0 9 5 ONO - 10 -
13.03.2019 02:00:00 6,0 3,0 5 3 N - 10 -
13.03.2019 01:00:00 7,2 2,6 9 5 NNE 1023,9 10 -
13.03.2019 00:00:00 8,0 3,0 8 4 NNE - 10 -
12.03.2019 23:00:00 8,0 3,0 11 6 NNE - 10 -
12.03.2019 22:00:00 8,6 2,5 9 5 NNE 1025,5 10 0,0
12.03.2019 21:00:00 10,0 2,0 11 6 NE - 10 -
12.03.2019 20:00:00 11,0 0,0 15 8 NO - 10 -

tt = Temperatura
td = dewpoint
ff = velocità del vento
dd = direzione del vento
ppp = reduced air pressure
vv = visibility
rr = precipitazioni

Stazioni seguenti

WeatherPro
AMSI
MeteoEarth